�������l�o���
Date,Time,MP-1(��Sv/h),MP-2(��Sv/h),MP-3(��Sv/h),MP-4(��Sv/h),MP-5(��Sv/h),MP-6(��Sv/h),MP-7(��Sv/h),MP-8(��Sv/h),����,����(m/s),���J
2016/10/15,00:00,1.155,1.946,1.357,2.137,1.505,0.602,1.070,0.985,���쐼,1.9,��
2016/10/15,00:10,1.153,1.945,1.355,2.134,1.507,0.603,1.070,0.986,��,2.7,��
2016/10/15,00:20,1.156,1.944,1.355,2.138,1.505,0.602,1.068,0.987,��,2.8,��
2016/10/15,00:30,1.154,1.942,1.357,2.134,1.506,0.601,1.069,0.985,���쐼,2.9,��
2016/10/15,00:40,1.150,1.944,1.357,2.135,1.502,0.601,1.069,0.987,���쐼,3.3,��
2016/10/15,00:50,1.155,1.941,1.355,2.137,1.506,0.602,1.069,0.985,��,3.6,��
2016/10/15,01:00,1.153,1.944,1.356,2.137,1.504,0.601,1.070,0.984,��,3.1,��
2016/10/15,01:10,1.153,1.945,1.355,2.134,1.507,0.602,1.068,0.987,��,3.3,��
2016/10/15,01:20,1.153,1.942,1.354,2.137,1.504,0.602,1.070,0.985,��,3.4,��
2016/10/15,01:30,1.151,1.946,1.356,2.135,1.501,0.601,1.069,0.987,��,3.8,��
2016/10/15,01:40,1.154,1.944,1.354,2.131,1.502,0.601,1.071,0.985,��,3.4,��
2016/10/15,01:50,1.151,1.943,1.355,2.135,1.507,0.602,1.069,0.987,�쐼,3.2,��
2016/10/15,02:00,1.152,1.945,1.355,2.133,1.504,0.600,1.070,0.987,�쐼,3.2,��
2016/10/15,02:10,1.153,1.942,1.354,2.133,1.504,0.600,1.069,0.987,�쐼,3.0,��
2016/10/15,02:20,1.151,1.945,1.356,2.136,1.507,0.601,1.068,0.987,�쐼,3.0,��
2016/10/15,02:30,1.153,1.943,1.357,2.134,1.505,0.601,1.069,0.987,�쐼,2.7,��
2016/10/15,02:40,1.154,1.942,1.354,2.136,1.505,0.601,1.068,0.986,��쐼,2.7,��
2016/10/15,02:50,1.151,1.943,1.354,2.132,1.504,0.602,1.070,0.987,�쐼,2.3,��
2016/10/15,03:00,1.153,1.942,1.355,2.135,1.504,0.600,1.069,0.986,�쐼,2.1,��
2016/10/15,03:10,1.153,1.945,1.354,2.134,1.503,0.602,1.068,0.988,�쐼,2.3,��
2016/10/15,03:20,1.151,1.943,1.354,2.132,1.504,0.601,1.069,0.986,��쐼,2.2,��
2016/10/15,03:30,1.153,1.942,1.355,2.135,1.502,0.600,1.067,0.986,�쐼,2.3,��
2016/10/15,03:40,1.153,1.945,1.356,2.137,1.504,0.601,1.069,0.985,�쐼,2.3,��
2016/10/15,03:50,1.152,1.942,1.357,2.133,1.503,0.602,1.067,0.987,��쐼,2.1,��
2016/10/15,04:00,1.152,1.941,1.355,2.137,1.505,0.601,1.068,0.986,�쐼,2.2,��
2016/10/15,04:10,1.152,1.939,1.351,2.135,1.503,0.600,1.068,0.986,�쐼,2.5,��
2016/10/15,04:20,1.152,1.943,1.353,2.135,1.502,0.600,1.070,0.986,�쐼,2.2,��
2016/10/15,04:30,1.154,1.944,1.356,2.134,1.503,0.601,1.068,0.986,�쐼,2.0,��
2016/10/15,04:40,1.151,1.943,1.354,2.136,1.505,0.600,1.072,0.985,���쐼,2.0,��
2016/10/15,04:50,1.153,1.942,1.355,2.134,1.502,0.599,1.066,0.986,��,2.3,��
2016/10/15,05:00,1.151,1.942,1.354,2.135,1.503,0.599,1.068,0.986,��,2.0,��
2016/10/15,05:10,1.148,1.943,1.352,2.137,1.500,0.601,1.066,0.986,��,2.2,��
2016/10/15,05:20,1.150,1.945,1.352,2.136,1.502,0.600,1.068,0.986,���쐼,2.1,��
2016/10/15,05:30,1.149,1.942,1.357,2.138,1.504,0.598,1.070,0.987,��,2.1,��
2016/10/15,05:40,1.152,1.940,1.351,2.134,1.502,0.601,1.069,0.986,��,2.2,��
2016/10/15,05:50,1.153,1.942,1.354,2.135,1.502,0.601,1.066,0.986,��,2.2,��
2016/10/15,06:00,1.152,1.942,1.354,2.132,1.501,0.600,1.068,0.986,��,2.2,��
2016/10/15,06:10,1.151,1.942,1.353,2.135,1.501,0.600,1.070,0.986,��,2.1,��
2016/10/15,06:20,1.152,1.942,1.355,2.135,1.501,0.601,1.071,0.987,��,2.4,��
2016/10/15,06:30,1.153,1.943,1.356,2.136,1.504,0.601,1.068,0.987,��,1.7,��
2016/10/15,06:40,1.151,1.943,1.356,2.138,1.502,0.600,1.069,0.986,��,1.4,��
2016/10/15,06:50,1.153,1.943,1.355,2.138,1.501,0.600,1.070,0.987,���쐼,1.5,��
2016/10/15,07:00,1.152,1.941,1.355,2.135,1.500,0.601,1.071,0.987,�쐼,1.9,��
2016/10/15,07:10,1.154,1.943,1.350,2.136,1.504,0.602,1.069,0.987,��쐼,1.8,��
2016/10/15,07:20,1.151,1.941,1.351,2.137,1.501,0.600,1.070,0.987,��쐼,1.5,��
2016/10/15,07:30,1.155,1.942,1.343,2.136,1.504,0.601,1.071,0.987,��쐼,0.9,��
2016/10/15,07:40,1.156,1.938,1.349,2.136,1.507,0.602,1.069,0.986,�쐼,0.9,��
2016/10/15,07:50,1.155,1.941,1.349,2.138,1.503,0.602,1.070,0.985,���쐼,1.0,��
2016/10/15,08:00,1.156,1.935,1.348,2.139,1.505,0.602,1.073,0.988,���쐼,1.0,��
2016/10/15,08:10,1.155,1.943,1.348,2.138,1.505,0.602,1.072,0.988,���k��,0.9,��
2016/10/15,08:20,1.155,1.944,1.347,2.139,1.507,0.602,1.069,0.989,���k��,0.8,��
2016/10/15,08:30,1.156,1.945,1.346,2.143,1.508,0.603,1.071,0.986,-,CALM,��
2016/10/15,08:40,1.153,1.949,1.348,2.138,1.505,0.603,1.068,0.990,���k��,0.8,��
2016/10/15,08:50,1.155,1.949,1.342,2.139,1.506,0.603,1.072,0.989,�k��,1.4,��
2016/10/15,09:00,1.156,1.948,1.342,2.139,1.500,0.601,1.070,0.989,�쓌,0.6,��
2016/10/15,09:10,1.158,1.946,1.343,2.140,1.503,0.604,1.072,0.989,���k��,1.4,��
2016/10/15,09:20,1.158,1.943,1.344,2.143,1.502,0.603,1.072,0.989,���k��,1.6,��
2016/10/15,09:30,1.157,1.944,1.342,2.144,1.504,0.602,1.070,0.990,���k��,1.5,��
2016/10/15,09:40,1.159,1.946,1.342,2.144,1.504,0.601,1.071,0.987,���k��,2.0,��
2016/10/15,09:50,1.156,1.942,1.340,2.141,1.504,0.600,1.072,0.987,��,2.4,��
2016/10/15,10:00,1.157,1.941,1.343,2.142,1.505,0.598,1.071,0.987,���k��,2.5,��
2016/10/15,10:10,1.160,1.946,1.345,2.144,1.505,0.601,1.071,0.985,���k��,2.6,��
2016/10/15,10:20,1.159,1.947,1.344,2.141,1.504,0.601,1.071,0.987,���k��,3.1,��
2016/10/15,10:30,1.159,1.952,1.345,2.144,1.506,0.600,1.070,0.984,���k��,3.0,��
2016/10/15,10:40,1.158,1.949,1.346,2.146,1.506,0.600,1.071,0.985,���k��,2.3,��
2016/10/15,10:50,1.156,1.948,1.346,2.145,1.506,0.600,1.073,0.985,��,2.9,��
2016/10/15,11:00,1.160,1.952,1.345,2.149,1.504,0.600,1.071,0.988,���k��,2.1,��
2016/10/15,11:10,1.163,1.946,1.349,2.146,1.505,0.601,1.070,0.986,���k��,2.4,��
2016/10/15,11:20,1.162,1.952,1.348,2.147,1.508,0.602,1.071,0.986,��,1.9,��
2016/10/15,11:30,1.160,1.954,1.350,2.144,1.509,0.602,1.071,0.987,��,2.6,��
2016/10/15,11:40,1.162,1.953,1.350,2.145,1.509,0.603,1.071,0.986,��,3.0,��
2016/10/15,11:50,1.159,1.953,1.350,2.145,1.510,0.603,1.073,0.987,��,3.0,��
2016/10/15,12:00,1.162,1.953,1.347,2.148,1.510,0.603,1.073,0.987,���k��,3.0,��
2016/10/15,12:10,1.159,1.954,1.347,2.146,1.508,0.603,1.072,0.987,��,3.3,��
2016/10/15,12:20,1.159,1.957,1.342,2.145,1.509,0.603,1.073,0.986,��,3.0,��
2016/10/15,12:30,1.158,1.955,1.346,2.147,1.510,0.604,1.073,0.987,��,3.4,��
2016/10/15,12:40,1.161,1.955,1.345,2.149,1.507,0.602,1.073,0.986,��,3.6,��
2016/10/15,12:50,1.161,1.954,1.347,2.148,1.513,0.603,1.073,0.986,���쓌,3.0,��
2016/10/15,13:00,1.162,1.950,1.349,2.147,1.512,0.604,1.072,0.989,���쓌,3.2,��
2016/10/15,13:10,1.160,1.957,1.347,2.147,1.512,0.604,1.072,0.988,���쓌,3.0,��
2016/10/15,13:20,1.162,1.951,1.347,2.149,1.513,0.603,1.073,0.987,���쓌,3.3,��
2016/10/15,13:30,1.160,1.951,1.348,2.147,1.516,0.602,1.073,0.987,���쓌,3.0,��
2016/10/15,13:40,1.164,1.954,1.349,2.148,1.512,0.603,1.072,0.986,�쓌,3.5,��
2016/10/15,13:50,1.160,1.955,1.348,2.149,1.514,0.604,1.074,0.988,���쓌,3.3,��
2016/10/15,14:00,1.162,1.954,1.348,2.147,1.514,0.601,1.074,0.988,�쓌,3.4,��
2016/10/15,14:10,1.165,1.952,1.357,2.148,1.512,0.603,1.074,0.988,���쓌,3.8,��
2016/10/15,14:20,1.163,1.957,1.358,2.148,1.515,0.602,1.074,0.988,�쓌,3.4,��
2016/10/15,14:30,1.163,1.954,1.361,2.149,1.514,0.604,1.073,0.987,�쓌,3.8,��
2016/10/15,14:40,1.162,1.949,1.364,2.149,1.515,0.603,1.073,0.987,��쓌,3.4,��
2016/10/15,14:50,1.162,1.955,1.363,2.151,1.516,0.604,1.074,0.987,��쓌,2.9,��
2016/10/15,15:00,1.160,1.949,1.361,2.150,1.514,0.602,1.074,0.986,��쓌,4.2,��
2016/10/15,15:10,1.161,1.948,1.361,2.148,1.516,0.599,1.074,0.986,��쓌,3.3,��
2016/10/15,15:20,1.162,1.955,1.363,2.149,1.515,0.603,1.072,0.988,��쓌,4.4,��
2016/10/15,15:30,1.162,1.955,1.361,2.148,1.516,0.603,1.074,0.985,��쓌,4.1,��
2016/10/15,15:40,1.159,1.955,1.361,2.150,1.515,0.606,1.073,0.986,��쓌,4.5,��
2016/10/15,15:50,1.162,1.955,1.360,2.152,1.511,0.605,1.075,0.986,��쓌,4.2,��
2016/10/15,16:00,1.163,1.954,1.362,2.150,1.516,0.605,1.076,0.986,��쓌,3.8,��
2016/10/15,16:10,1.163,1.953,1.360,2.148,1.514,0.605,1.072,0.985,��쓌,4.4,��
2016/10/15,16:20,1.164,1.954,1.361,2.149,1.511,0.604,1.074,0.988,��,3.8,��
2016/10/15,16:30,1.165,1.954,1.362,2.149,1.508,0.605,1.073,0.987,��쓌,3.1,��
2016/10/15,16:40,1.163,1.957,1.360,2.147,1.512,0.605,1.075,0.988,��쓌,4.4,��
2016/10/15,16:50,1.165,1.959,1.359,2.149,1.511,0.606,1.074,0.988,��,4.5,��
2016/10/15,17:00,1.164,1.959,1.360,2.147,1.511,0.605,1.074,0.989,��,3.8,��
2016/10/15,17:10,1.164,1.956,1.363,2.147,1.514,0.605,1.073,0.988,��,3.8,��
2016/10/15,17:20,1.163,1.956,1.362,2.147,1.514,0.606,1.074,0.987,��,4.4,��
2016/10/15,17:30,1.162,1.958,1.363,2.147,1.516,0.606,1.074,0.988,��,5.2,��
2016/10/15,17:40,1.165,1.958,1.359,2.148,1.515,0.604,1.075,0.989,��,4.9,��
2016/10/15,17:50,1.162,1.953,1.358,2.147,1.516,0.606,1.074,0.989,��쐼,4.5,��
2016/10/15,18:00,1.163,1.954,1.360,2.147,1.518,0.605,1.074,0.988,��쐼,4.9,��
2016/10/15,18:10,1.162,1.951,1.360,2.146,1.517,0.605,1.073,0.989,��쐼,5.2,��
2016/10/15,18:20,1.162,1.954,1.362,2.144,1.514,0.605,1.073,0.987,��쐼,5.5,��
2016/10/15,18:30,1.162,1.952,1.361,2.146,1.516,0.605,1.074,0.987,��쐼,5.5,��
2016/10/15,18:40,1.163,1.955,1.362,2.147,1.514,0.605,1.072,0.988,��쐼,5.8,��
2016/10/15,18:50,1.164,1.956,1.362,2.148,1.513,0.605,1.071,0.988,��쐼,6.1,��
2016/10/15,19:00,1.164,1.955,1.361,2.146,1.514,0.606,1.074,0.988,��쐼,6.1,��
2016/10/15,19:10,1.162,1.952,1.362,2.144,1.512,0.605,1.072,0.985,��쐼,7.1,��
2016/10/15,19:20,1.162,1.951,1.359,2.145,1.516,0.604,1.073,0.986,��쐼,6.6,��
2016/10/15,19:30,1.162,1.956,1.358,2.145,1.514,0.605,1.074,0.987,��쐼,6.3,��
2016/10/15,19:40,1.161,1.956,1.361,2.147,1.513,0.605,1.074,0.987,��쐼,5.8,��
2016/10/15,19:50,1.163,1.951,1.358,2.146,1.512,0.605,1.072,0.988,��쐼,5.3,��
2016/10/15,20:00,1.163,1.952,1.360,2.144,1.514,0.605,1.073,0.988,��쐼,4.9,��
2016/10/15,20:10,1.162,1.952,1.360,2.146,1.511,0.603,1.073,0.986,��쐼,4.6,��
2016/10/15,20:20,1.161,1.953,1.360,2.144,1.514,0.602,1.071,0.988,��쐼,4.4,��
2016/10/15,20:30,1.163,1.950,1.360,2.145,1.513,0.603,1.072,0.985,�쐼,4.4,��
2016/10/15,20:40,1.163,1.950,1.356,2.145,1.514,0.603,1.073,0.986,�쐼,4.2,��
2016/10/15,20:50,1.163,1.952,1.359,2.147,1.510,0.604,1.072,0.988,��쐼,3.6,��
2016/10/15,21:00,1.162,1.951,1.357,2.145,1.511,0.603,1.073,0.987,��쐼,4.6,��
2016/10/15,21:10,1.162,1.950,1.360,2.142,1.514,0.603,1.073,0.987,��쐼,5.0,��
2016/10/15,21:20,1.162,1.951,1.357,2.143,1.510,0.602,1.072,0.987,��쐼,4.4,��
2016/10/15,21:30,1.161,1.951,1.359,2.141,1.512,0.605,1.071,0.989,�쐼,4.4,��
2016/10/15,21:40,1.163,1.950,1.359,2.144,1.512,0.603,1.071,0.987,�쐼,4.4,��
2016/10/15,21:50,1.162,1.950,1.359,2.144,1.511,0.603,1.071,0.987,��쐼,3.9,��
2016/10/15,22:00,1.162,1.953,1.357,2.144,1.510,0.604,1.071,0.986,��쐼,4.1,��
2016/10/15,22:10,1.164,1.950,1.357,2.144,1.511,0.602,1.075,0.987,��쐼,4.1,��
2016/10/15,22:20,1.163,1.950,1.357,2.145,1.510,0.603,1.072,0.987,��쐼,4.4,��
2016/10/15,22:30,1.162,1.946,1.357,2.144,1.513,0.603,1.074,0.988,��쐼,4.4,��
2016/10/15,22:40,1.161,1.950,1.359,2.143,1.511,0.602,1.070,0.988,��쐼,3.8,��
2016/10/15,22:50,1.164,1.950,1.359,2.144,1.508,0.601,1.073,0.985,��쐼,3.8,��
2016/10/15,23:00,1.163,1.949,1.356,2.145,1.510,0.604,1.071,0.987,�쐼,3.5,��
2016/10/15,23:10,1.163,1.948,1.357,2.146,1.511,0.603,1.072,0.986,�쐼,3.8,��
2016/10/15,23:20,1.161,1.950,1.355,2.146,1.510,0.603,1.071,0.986,�쐼,3.6,��
2016/10/15,23:30,1.162,1.951,1.358,2.145,1.510,0.602,1.070,0.989,�쐼,3.4,��
2016/10/15,23:40,1.162,1.948,1.355,2.141,1.508,0.602,1.071,0.987,�쐼,3.6,��
2016/10/15,23:50,1.163,1.949,1.356,2.145,1.506,0.603,1.071,0.987,��쐼,4.1,��
